Location: Unspecified
(0.0000°N, 0.0000°E)
Time: 09:48:56
(UTC+01:00)

BlueWalker 3 - Visible Passes

Search period start: 21 May 2026 00:00
Search period end: 31 May 2026 00:00
Orbit: 447 x 457 km, 53.2° (Epoch: 20 May)

Date Brightness Start Highest point End Pass type
(mag) Time Alt. Az. Time Alt. Az. Time Alt. Az.
21 May 4.2 20:07:47 10° WSW 20:10:44 24° NW 20:13:39 10° N visible
22 May 3.4 19:30:35 10° SW 19:33:56 39° NW 19:37:15 10° NNE visible
25 May 2.6 05:58:20 10° NNW 06:01:48 52° ENE 06:05:16 10° SE visible
26 May 3.6 05:21:47 10° N 05:24:58 31° ENE 05:28:09 10° ESE visible
27 May 4.4 04:48:27 19° ENE 04:48:27 19° ENE 04:50:47 10° ESE visible
27 May 3.5 06:23:21 10° W 06:25:18 14° SW 06:27:16 10° SSW visible
28 May 4.0 05:50:57 12° S 05:50:57 12° S 05:51:16 10° S visible
